| time (UTC) | temp C | wind direction | speed KPH | gust KPH | rain 1hr cm | rain 24hr cm | rain mn cm | humidity % | barometer mb |
| 20260906052032 | 16 | 0.0 | 0.0 | 0.00 | 0.00 | 0.00 | 92 | 1013.1 | |
| 20260906051017 | 16 | 0.0 | 0.0 | 0.00 | 0.00 | 0.00 | 92 | 1013.0 | |
| 20260906050021 | 16 | 0.0 | 0.0 | 0.00 | 0.00 | 0.00 | 92 | 1013.1 | |
| 20260906045044 | 16 | 0.0 | 0.0 | 0.00 | 0.00 | 0.00 | 92 | 1012.9 | |
| 20260906044028 | 16 | 0.0 | 0.0 | 0.00 | 0.00 | 0.00 | 92 | 1012.9 | |
| 20260906043030 | 16 | 0.0 | 0.0 | 0.00 | 0.00 | 0.00 | 91 | 1012.9 | |
| 20260906042036 | 16 | 0.0 | 0.0 | 0.00 | 0.00 | 0.00 | 91 | 1012.9 | |
| 20260906041019 | 16 | 0.0 | 0.0 | 0.00 | 0.00 | 0.00 | 91 | 1012.9 | |
| 20260906040022 | 16 | 0.0 | 0.0 | 0.00 | 0.00 | 0.00 | 91 | 1012.9 | |
| 20260906035026 | 16 | 0.0 | 0.0 | 0.00 | 0.00 | 0.00 | 89 | 1012.9 | |
| 20260906034029 | 16 | 0.0 | 0.0 | 0.00 | 0.00 | 0.00 | 89 | 1012.9 | |
| 20260906033032 | 16 | 0.0 | 0.0 | 0.00 | 0.00 | 0.00 | 88 | 1012.8 | |
| 20260906032017 | 16 | 0.0 | 0.0 | 0.00 | 0.00 | 0.00 | 88 | 1012.7 | |
| 20260906031021 | 16 | 0.0 | 0.0 | 0.00 | 0.00 | 0.00 | 88 | 1012.7 | |
| 20260906030024 | 16 | 0.0 | 0.0 | 0.00 | 0.00 | 0.00 | 88 | 1012.8 | |
| 20260906025027 | 16 | 0.0 | 0.0 | 0.00 | 0.00 | 0.00 | 88 | 1012.7 | |
| 20260906024025 | 16 | 0.0 | 0.0 | 0.00 | 0.00 | 0.00 | 87 | 1012.8 | |
| 20260906023016 | 16 | 0.0 | 0.0 | 0.00 | 0.00 | 0.00 | 87 | 1012.7 | |
| 20260906022019 | 16 | 0.0 | 0.0 | 0.00 | 0.00 | 0.00 | 86 | 1012.6 | |
| 20260906021036 | 16 | 0.0 | 0.0 | 0.00 | 0.00 | 0.00 | 86 | 1012.7 | |
| 20260906020046 | 16 | 0.0 | 0.0 | 0.00 | 0.00 | 0.00 | 86 | 1012.8 | |
| 20260906015029 | 16 | 0.0 | 0.0 | 0.00 | 0.00 | 0.00 | 85 | 1012.9 | |
| 20260906014032 | 16 | 0.0 | 0.0 | 0.00 | 0.00 | 0.00 | 84 | 1012.8 | |
| 20260906013038 | 16 | 0.0 | 0.0 | 0.00 | 0.00 | 0.00 | 84 | 1012.8 | |
| 20260906012021 | 17 | 0.0 | 0.0 | 0.00 | 0.00 | 0.00 | 84 | 1012.8 | |
| 20260906011044 | 17 | 0.0 | 0.0 | 0.00 | 0.00 | 0.00 | 84 | 1012.6 | |
| 20260906010047 | 17 | 0.0 | 0.0 | 0.00 | 0.00 | 0.00 | 84 | 1012.5 | |
| 20260906005031 | 17 | 0.0 | 0.0 | 0.00 | 0.00 | 0.00 | 84 | 1012.4 | |
| 20260906004016 | 17 | 0.0 | 0.0 | 0.00 | 0.00 | 0.00 | 83 | 1012.4 | |
| 20260906003019 | 17 | 0.0 | 0.0 | 0.00 | 0.00 | 0.00 | 82 | 1012.4 | |
| 20260906002022 | 17 | 0.0 | 0.0 | 0.00 | 0.00 | 0.00 | 82 | 1012.3 | |
| 20260906001046 | 17 | 0.0 | 0.0 | 0.00 | 0.00 | 0.00 | 82 | 1012.3 | |
| 20260906000049 | 17 | 0.0 | 0.0 | 0.00 | 0.00 | 0.00 | 82 | 1012.3 | |
| 20260905235032 | 17 | 0.0 | 0.0 | 0.00 | 0.00 | 0.00 | 81 | 1012.3 | |
| 20260905234018 | 17 | 0.0 | 0.0 | 0.00 | 0.00 | 0.00 | 81 | 1012.2 | |
| 20260905233041 | 17 | 0.0 | 0.0 | 0.00 | 0.00 | 0.00 | 80 | 1012.2 | |
| 20260905232025 | 17 | 0.0 | 0.0 | 0.00 | 0.00 | 0.00 | 80 | 1012.1 | |
| 20260905231027 | 18 | 0.0 | 0.0 | 0.00 | 0.00 | 0.00 | 80 | 1012.1 | |
| 20260905230025 | 18 | 0.0 | 0.0 | 0.00 | 0.00 | 0.00 | 80 | 1011.8 | |
| 20260905225016 | 18 | 0.0 | 0.0 | 0.00 | 0.00 | 0.00 | 79 | 1011.9 | |
| 20260905224059 | 18 | 0.0 | 0.0 | 0.00 | 0.00 | 0.00 | 78 | 1011.8 | |
| 20260905223016 | 18 | 0.0 | 0.0 | 0.00 | 0.00 | 0.00 | 78 | 1011.7 | |
| 20260905222026 | 19 | 0.0 | 0.0 | 0.00 | 0.00 | 0.00 | 77 | 1011.7 | |
| 20260905221049 | 20 | 0.0 | 0.0 | 0.00 | 0.00 | 0.00 | 76 | 1011.6 | |
| 20260905220032 | 20 | 0.0 | 0.0 | 0.00 | 0.00 | 0.00 | 77 | 1011.4 | |
| 20260905215018 | 19 | 0.0 | 0.0 | 0.00 | 0.00 | 0.00 | 80 | 1011.1 | |
| 20260905214021 | 18 | 0.0 | 0.0 | 0.00 | 0.00 | 0.00 | 81 | 1011.1 | |
| 20260905213024 | 18 | 0.0 | 0.0 | 0.00 | 0.00 | 0.00 | 82 | 1011.1 | |
| 20260905212028 | 18 | 0.0 | 0.0 | 0.00 | 0.00 | 0.00 | 83 | 1011.1 | |
| 20260905211031 | 18 | 0.0 | 0.0 | 0.00 | 0.00 | 0.00 | 82 | 1011.0 | |
| 20260905210016 | 18 | 0.0 | 0.0 | 0.00 | 0.00 | 0.00 | 81 | 1011.1 | |
| 20260905205019 | 18 | 0.0 | 0.0 | 0.00 | 0.00 | 0.00 | 79 | 1011.0 | |
| 20260905204022 | 18 | 0.0 | 0.0 | 0.00 | 0.00 | 0.00 | 79 | 1011.1 | |
| 20260905203026 | 18 | 0.0 | 0.0 | 0.00 | 0.00 | 0.00 | 78 | 1011.0 | |
| 20260905202029 | 18 | 0.0 | 0.0 | 0.00 | 0.00 | 0.00 | 78 | 1011.0 | |
| 20260905201032 | 18 | 0.0 | 0.0 | 0.00 | 0.00 | 0.00 | 77 | 1011.0 | |
| 20260905200018 | 19 | 0.0 | 0.0 | 0.00 | 0.00 | 0.00 | 76 | 1011.1 | |
| 20260905195021 | 20 | 0.0 | 0.0 | 0.00 | 0.00 | 0.00 | 71 | 1010.8 | |
| 20260905194024 | 21 | 0.0 | 0.0 | 0.00 | 0.00 | 0.00 | 66 | 1010.6 | |
| 20260905193027 | 21 | 0.0 | 0.0 | 0.00 | 0.00 | 0.00 | 65 | 1010.4 | |
| 20260905192025 | 21 | 0.0 | 0.0 | 0.00 | 0.00 | 0.00 | 66 | 1010.3 | |
| 20260905191016 | 22 | 0.0 | 0.0 | 0.00 | 0.00 | 0.00 | 63 | 1010.3 | |
| 20260905190019 | 22 | 0.0 | 0.0 | 0.00 | 0.00 | 0.00 | 64 | 1010.3 | |
| 20260905185017 | 22 | 0.0 | 0.0 | 0.00 | 0.00 | 0.00 | 64 | 1010.2 | |
| 20260905184026 | 23 | 0.0 | 0.0 | 0.00 | 0.00 | 0.00 | 62 | 1010.1 | |
| 20260905183029 | 24 | 153 | 0.0 | 3.2 | 0.00 | 0.00 | 0.00 | 60 | 1010.2 |
| 20260905182033 | 24 | 180 | 0.0 | 4.8 | 0.00 | 0.00 | 0.00 | 60 | 1010.2 |
| 20260905181018 | 24 | 0.0 | 0.0 | 0.00 | 0.00 | 0.00 | 59 | 1010.2 | |
| 20260905180021 | 22 | 148 | 0.0 | 3.2 | 0.00 | 0.00 | 0.00 | 63 | 1010.3 |
| 20260905175024 | 22 | 0.0 | 0.0 | 0.00 | 0.00 | 0.00 | 64 | 1010.3 | |
| 20260905174028 | 22 | 0.0 | 0.0 | 0.00 | 0.00 | 0.00 | 65 | 1010.1 | |
| 20260905173031 | 22 | 113 | 0.0 | 1.6 | 0.00 | 0.00 | 0.00 | 61 | 1010.1 |
| 20260905172057 | 22 | 0.0 | 0.0 | 0.00 | 0.00 | 0.00 | 61 | 1010.0 | |
| 20260905171019 | 22 | 128 | 1.6 | 6.4 | 0.00 | 0.00 | 0.00 | 64 | 1009.9 |
| 20260905170023 | 22 | 0.0 | 0.0 | 0.00 | 0.00 | 0.00 | 63 | 1010.0 | |
| 20260905165026 | 23 | 164 | 0.0 | 4.8 | 0.00 | 0.00 | 0.00 | 62 | 1010.0 |
| 20260905164029 | 22 | 0.0 | 0.0 | 0.00 | 0.00 | 0.00 | 60 | 1009.9 | |
| 20260905163035 | 23 | 0.0 | 0.0 | 0.00 | 0.00 | 0.00 | 58 | 1009.9 | |
| 20260905162018 | 24 | 0.0 | 0.0 | 0.00 | 0.00 | 0.00 | 58 | 1010.0 | |
| 20260905161021 | 23 | 158 | 0.0 | 1.6 | 0.00 | 0.00 | 0.00 | 60 | 1010.0 |
| 20260905160025 | 23 | 0.0 | 0.0 | 0.00 | 0.00 | 0.00 | 61 | 1010.0 | |
| 20260905155048 | 22 | 0.0 | 0.0 | 0.00 | 0.00 | 0.00 | 62 | 1009.9 | |
| 20260905154025 | 23 | 0.0 | 0.0 | 0.00 | 0.00 | 0.00 | 59 | 1010.1 | |
| 20260905153017 | 22 | 0.0 | 0.0 | 0.00 | 0.00 | 0.00 | 62 | 1010.1 | |
| 20260905152100 | 22 | 0.0 | 0.0 | 0.00 | 0.00 | 0.00 | 63 | 1010.0 | |
| 20260905151017 | 22 | 0.0 | 0.0 | 0.00 | 0.00 | 0.00 | 64 | 1010.0 | |
| 20260905150026 | 21 | 0.0 | 0.0 | 0.00 | 0.00 | 0.00 | 65 | 1010.1 | |
| 20260905145030 | 22 | 0.0 | 0.0 | 0.00 | 0.00 | 0.00 | 65 | 1009.9 | |
| 20260905144015 | 21 | 0.0 | 0.0 | 0.00 | 0.00 | 0.00 | 65 | 1010.1 | |
| 20260905143038 | 21 | 0.0 | 0.0 | 0.00 | 0.00 | 0.00 | 66 | 1010.1 | |
| 20260905142021 | 21 | 0.0 | 0.0 | 0.00 | 0.00 | 0.00 | 67 | 1010.1 | |
| 20260905141025 | 21 | 0.0 | 0.0 | 0.00 | 0.00 | 0.00 | 66 | 1009.9 | |
| 20260905140028 | 20 | 0.0 | 0.0 | 0.00 | 0.00 | 0.00 | 68 | 1010.0 | |
| 20260905135031 | 20 | 0.0 | 0.0 | 0.00 | 0.00 | 0.00 | 68 | 1009.7 | |
| 20260905134017 | 20 | 0.0 | 0.0 | 0.00 | 0.00 | 0.00 | 71 | 1009.7 | |
| 20260905133020 | 20 | 0.0 | 0.0 | 0.00 | 0.00 | 0.00 | 71 | 1009.6 | |
| 20260905132023 | 20 | 0.0 | 0.0 | 0.00 | 0.00 | 0.00 | 71 | 1009.5 | |
| 20260905131026 | 19 | 0.0 | 0.0 | 0.00 | 0.00 | 0.00 | 73 | 1009.5 | |
| 20260905130030 | 19 | 0.0 | 0.0 | 0.00 | 0.00 | 0.00 | 73 | 1009.6 | |
| 20260905125015 | 19 | 0.0 | 0.0 | 0.00 | 0.00 | 0.00 | 75 | 1009.5 | |
| 20260905124018 | 18 | 0.0 | 0.0 | 0.00 | 0.00 | 0.00 | 76 | 1009.4 | |
| 20260905123022 | 18 | 0.0 | 0.0 | 0.00 | 0.00 | 0.00 | 76 | 1009.3 | |
| 20260905122025 | 18 | 0.0 | 0.0 | 0.00 | 0.00 | 0.00 | 76 | 1009.2 | |
| 20260905121028 | 18 | 0.0 | 0.0 | 0.00 | 0.00 | 0.00 | 77 | 1008.9 | |
| 20260905120025 | 18 | 0.0 | 0.0 | 0.00 | 0.00 | 0.00 | 78 | 1008.9 | |
| 20260905115037 | 17 | 0.0 | 0.0 | 0.00 | 0.00 | 0.00 | 78 | 1008.8 | |
| 20260905114020 | 17 | 270 | 0.0 | 1.6 | 0.00 | 0.00 | 0.00 | 78 | 1008.7 |
| 20260905113017 | 17 | 0.0 | 0.0 | 0.00 | 0.00 | 0.00 | 78 | 1008.7 | |
| 20260905112047 | 17 | 0.0 | 0.0 | 0.00 | 0.00 | 0.00 | 79 | 1008.7 | |
| 20260905111030 | 17 | 0.0 | 0.0 | 0.00 | 0.00 | 0.00 | 79 | 1008.8 | |
| 20260905110015 | 16 | 0.0 | 0.0 | 0.00 | 0.00 | 0.00 | 80 | 1008.5 | |
| 20260905105039 | 16 | 0.0 | 0.0 | 0.00 | 0.00 | 0.00 | 80 | 1008.6 | |
| 20260905104021 | 16 | 0.0 | 0.0 | 0.00 | 0.00 | 0.00 | 80 | 1008.4 | |
| 20260905103025 | 16 | 0.0 | 0.0 | 0.00 | 0.00 | 0.00 | 79 | 1008.4 | |
| 20260905102028 | 16 | 0.0 | 0.0 | 0.00 | 0.00 | 0.00 | 79 | 1008.4 | |
| 20260905101052 | 16 | 0.0 | 0.0 | 0.00 | 0.00 | 0.00 | 79 | 1008.3 | |
| 20260905100017 | 16 | 0.0 | 0.0 | 0.00 | 0.00 | 0.00 | 79 | 1008.1 | |
| 20260905095020 | 16 | 0.0 | 0.0 | 0.00 | 0.00 | 0.00 | 79 | 1008.3 | |
| 20260905094044 | 16 | 0.0 | 0.0 | 0.00 | 0.00 | 0.00 | 79 | 1008.1 | |
| 20260905093027 | 16 | 0.0 | 0.0 | 0.00 | 0.00 | 0.00 | 79 | 1008.0 | |
| 20260905092030 | 16 | 0.0 | 0.0 | 0.00 | 0.00 | 0.00 | 79 | 1008.1 | |
| 20260905091036 | 16 | 0.0 | 0.0 | 0.00 | 0.00 | 0.00 | 78 | 1008.2 | |
| 20260905090019 | 16 | 0.0 | 0.0 | 0.00 | 0.00 | 0.00 | 78 | 1007.9 | |
| 20260905085022 | 16 | 0.0 | 0.0 | 0.00 | 0.00 | 0.00 | 78 | 1007.9 | |
| 20260905084025 | 16 | 0.0 | 0.0 | 0.00 | 0.00 | 0.00 | 78 | 1007.9 | |
| 20260905083029 | 16 | 0.0 | 0.0 | 0.00 | 0.00 | 0.00 | 78 | 1008.0 | |
| 20260905082026 | 16 | 0.0 | 0.0 | 0.00 | 0.00 | 0.00 | 78 | 1008.0 | |
| 20260905081017 | 16 | 0.0 | 0.0 | 0.00 | 0.00 | 0.00 | 78 | 1007.8 | |
| 20260905080021 | 16 | 0.0 | 0.0 | 0.00 | 0.00 | 0.00 | 78 | 1007.7 | |
| 20260905075018 | 16 | 0.0 | 0.0 | 0.00 | 0.00 | 0.00 | 78 | 1007.8 | |
| 20260905074015 | 16 | 0.0 | 0.0 | 0.00 | 0.00 | 0.00 | 78 | 1007.9 | |
| 20260905073031 | 16 | 0.0 | 0.0 | 0.00 | 0.00 | 0.00 | 78 | 1008.0 | |
| 20260905072016 | 16 | 0.0 | 0.0 | 0.00 | 0.00 | 0.00 | 77 | 1008.0 | |
| 20260905071019 | 16 | 0.0 | 0.0 | 0.00 | 0.00 | 0.00 | 77 | 1008.2 | |
| 20260905070043 | 17 | 0.0 | 0.0 | 0.00 | 0.00 | 0.00 | 77 | 1008.2 | |
| 20260905065026 | 17 | 0.0 | 0.0 | 0.00 | 0.00 | 0.00 | 77 | 1008.2 | |
| 20260905064029 | 17 | 0.0 | 0.0 | 0.00 | 0.00 | 0.00 | 77 | 1008.3 | |
| 20260905063033 | 17 | 0.0 | 0.0 | 0.00 | 0.00 | 0.00 | 77 | 1008.4 | |
| 20260905062018 | 17 | 0.0 | 0.0 | 0.00 | 0.00 | 0.00 | 77 | 1008.4 | |
| 20260905061041 | 17 | 0.0 | 0.0 | 0.00 | 0.00 | 0.00 | 77 | 1008.4 | |
| 20260905060045 | 17 | 0.0 | 0.0 | 0.00 | 0.00 | 0.00 | 77 | 1008.4 | |
| 20260905055028 | 17 | 0.0 | 0.0 | 0.00 | 0.00 | 0.00 | 77 | 1008.5 | |
| 20260905054031 | 17 | 0.0 | 0.0 | 0.00 | 0.00 | 0.00 | 77 | 1008.5 | |
| 20260905053016 | 17 | 0.0 | 0.0 | 0.00 | 0.00 | 0.00 | 76 | 1008.5 |